SR3WXA Weather Reports


time (UTC)temp
C
wind
direction
speed
KPH
gust
KPH
rain 1hr
cm
rain 24hr
cm
rain mn
cm
humidity
%
barometer
mb
20260905223130 13 0 0.0 0.0 0.03 0.48 0.03 93 1017.9
20260905223030 13 0 0.0 0.0 0.03 0.48 0.03 93 1017.9
20260905222740 13 0 0.0 0.0 0.03 0.48 0.03 93 1017.9
20260905222530 13 0 0.0 0.0 0.03 0.48 0.03 93 1017.9
20260905222205 13 0 0.0 0.0 0.00 0.46 0.00 93 1017.9
20260905222030 13 0 0.0 0.0 0.00 0.46 0.00 93 1017.9
20260905221650 13 0 0.0 0.0 0.00 0.48 0.00 93 1017.9
20260905221530 13 0 0.0 0.0 0.00 0.48 0.00 93 1017.9
20260905221101 13 0 0.0 0.0 0.03 0.48 0.00 93 1017.9
20260905220949 13 0 0.0 0.0 0.03 0.48 0.00 93 1017.9
20260905220641 13 0 0.0 0.0 0.03 0.48 0.46 93 1017.9
20260905220449 13 0 0.0 0.0 0.03 0.48 0.46 93 1017.9
20260905220122 13 0 0.0 0.0 0.03 0.48 0.46 93 1017.7
20260905215949 13 0 0.0 0.0 0.03 0.48 0.46 93 1017.7
20260905215449 13 0 0.0 0.0 0.03 0.48 0.46 93 1017.7
20260905215156 13 0 0.0 0.0 0.03 0.51 0.46 93 1017.8
20260905214949 13 0 0.0 0.0 0.03 0.51 0.46 93 1017.8
20260905214535 13 0 0.0 0.0 0.03 0.51 0.46 93 1017.7
20260905214449 13 0 0.0 0.0 0.03 0.51 0.46 93 1017.7
20260905214105 13 0 0.0 0.0 0.03 0.51 0.46 93 1017.6
20260905213949 13 0 0.0 0.0 0.03 0.51 0.46 93 1017.6
20260905213313 13 0 0.0 0.0 0.03 0.51 0.46 93 1017.6
20260905213157 13 0 0.0 0.0 0.03 0.51 0.46 93 1017.6
20260905212919 13 0 0.0 0.0 0.03 0.51 0.46 93 1017.5
20260905212657 13 0 0.0 0.0 0.03 0.51 0.46 93 1017.5
20260905212205 13 0 0.0 0.0 0.05 0.51 0.46 93 1017.4
20260905212010 13 0 0.0 0.0 0.05 0.51 0.46 93 1017.4
20260905211510 13 0 0.0 0.0 0.05 0.53 0.46 93 1017.4
20260905211111 13 0 0.0 0.0 0.05 0.53 0.46 93 1017.4
20260905211012 13 0 0.0 0.0 0.05 0.53 0.46 93 1017.4
20260905210656 13 0 0.0 0.0 0.03 0.51 0.43 93 1017.4
20260905210510 13 0 0.0 0.0 0.03 0.51 0.43 93 1017.4
20260905210202 13 0 0.0 0.0 0.03 0.51 0.43 93 1017.4
20260905210010 13 0 0.0 0.0 0.03 0.51 0.43 93 1017.4
20260905205637 13 0 0.0 0.0 0.03 0.51 0.43 93 1017.3
20260905205511 13 0 0.0 0.0 0.03 0.51 0.43 93 1017.3
20260905205208 13 0 0.0 0.0 0.03 0.53 0.43 93 1017.3
20260905205010 13 0 0.0 0.0 0.03 0.53 0.43 93 1017.3
20260905204151 13 0 0.0 0.0 0.03 0.53 0.43 93 1017.2
20260905204116 13 0 0.0 0.0 0.03 0.53 0.43 93 1017.2
20260905204010 13 0 0.0 0.0 0.03 0.53 0.43 93 1017.2
20260905203510 13 0 0.0 0.0 0.03 0.53 0.43 93 1017.2
20260905203008 13 0 0.0 0.0 0.03 0.53 0.43 93 1017.1
20260905202739 13 0 0.0 0.0 0.03 0.53 0.43 93 1017.1
20260905202349 13 0 0.0 0.0 0.00 0.51 0.41 93 1017.0
20260905202239 13 0 0.0 0.0 0.00 0.51 0.41 93 1017.0
20260905201949 13 0 0.0 0.0 0.03 0.51 0.41 93 1016.9
20260905201739 13 0 0.0 0.0 0.03 0.51 0.41 93 1016.9
20260905201419 13 0 0.0 0.0 0.03 0.53 0.41 93 1016.9
20260905201239 13 0 0.0 0.0 0.03 0.53 0.41 93 1016.9
20260905200921 13 0 0.0 0.0 0.03 0.53 0.41 93 1016.9
20260905200739 13 0 0.0 0.0 0.03 0.53 0.41 93 1016.9
20260905200254 13 0 0.0 0.0 0.03 0.53 0.41 93 1016.9
20260905200138 13 0 0.0 0.0 0.03 0.53 0.41 93 1016.9
20260905195638 13 0 0.0 0.0 0.03 0.53 0.41 93 1016.8
20260905195306 13 0 0.0 0.0 0.03 0.56 0.41 93 1016.7
20260905195138 13 0 0.0 0.0 0.03 0.56 0.41 93 1016.7
20260905194638 13 0 0.0 0.0 0.03 0.56 0.41 93 1016.7
20260905194254 13 0 0.0 0.0 0.03 0.56 0.41 93 1016.8
20260905194138 13 0 0.0 0.0 0.03 0.56 0.41 93 1016.8
20260905193838 13 0 0.0 0.0 0.05 0.56 0.41 94 1016.7
20260905193638 13 0 0.0 0.0 0.05 0.56 0.41 94 1016.7
20260905193233 13 0 0.0 0.0 0.05 0.56 0.41 94 1016.6
20260905193138 13 0 0.0 0.0 0.05 0.56 0.41 94 1016.6
20260905192959 13 0 0.0 0.0 0.05 0.56 0.41 94 1016.6
20260905192638 13 0 0.0 0.0 0.05 0.56 0.41 94 1016.6
20260905191908 13 0 0.0 0.0 0.05 0.58 0.41 94 1016.5
20260905190526 13 0 0.0 0.0 0.03 0.58 0.38 94 1016.5
20260905190409 13 0 0.0 0.0 0.03 0.58 0.38 94 1016.5
20260905185908 13 0 0.0 0.0 0.03 0.58 0.38 94 1016.3
20260905185513 13 0 0.0 0.0 0.03 0.61 0.38 93 1016.3
20260905185408 13 0 0.0 0.0 0.03 0.61 0.38 93 1016.3
20260905185036 13 0 0.0 0.0 0.03 0.61 0.38 93 1016.2
20260905184908 13 0 0.0 0.0 0.03 0.61 0.38 93 1016.2
20260905184538 13 0 0.0 0.0 0.03 0.64 0.38 93 1016.1
20260905184408 13 0 0.0 0.0 0.03 0.64 0.38 93 1016.1
20260905183908 13 0 0.0 0.0 0.03 0.64 0.38 93 1016.1
20260905183600 13 0 0.0 0.0 0.03 0.64 0.36 93 1016.1
20260905183409 13 0 0.0 0.0 0.03 0.64 0.36 93 1016.1
20260905182902 13 0 0.0 0.0 0.03 0.66 0.36 93 1016.1
20260905182644 13 0 0.0 0.0 0.03 0.66 0.36 93 1016.1
20260905182253 13 0 0.0 0.0 0.03 0.69 0.36 93 1016.0
20260905182144 13 0 0.0 0.0 0.03 0.69 0.36 93 1016.0
20260905181819 13 0 0.0 0.0 0.03 0.69 0.36 93 1016.1
20260905181644 13 0 0.0 0.0 0.03 0.69 0.36 93 1016.1
20260905181241 13 0 0.0 0.0 0.03 0.71 0.36 93 1016.0
20260905181144 13 0 0.0 0.0 0.03 0.71 0.36 93 1016.0
20260905180905 13 0 0.0 0.0 0.03 0.74 0.36 93 1016.0
20260905180644 13 0 0.0 0.0 0.03 0.74 0.36 93 1016.0
20260905180234 13 0 0.0 0.0 0.03 0.76 0.36 93 1016.0
20260905180144 13 0 0.0 0.0 0.03 0.76 0.36 93 1016.0
20260905175833 13 0 0.0 0.0 0.03 0.79 0.36 93 1015.9
20260905175644 13 0 0.0 0.0 0.03 0.79 0.36 93 1015.9
20260905175227 13 0 0.0 0.0 0.05 0.81 0.36 93 1015.9
20260905175144 13 0 0.0 0.0 0.05 0.81 0.36 93 1015.9
20260905174353 13 0 0.0 0.0 0.05 0.81 0.36 93 1015.6
20260905174242 13 0 0.0 0.0 0.05 0.81 0.36 93 1015.6
20260905173903 13 0 0.0 0.0 0.05 0.86 0.36 93 1015.6
20260905173742 13 0 0.0 0.0 0.05 0.86 0.36 93 1015.6
20260905173406 13 0 0.0 0.0 0.03 0.86 0.33 93 1015.5
20260905173242 13 0 0.0 0.0 0.03 0.86 0.33 93 1015.5
20260905172356 13 0 0.0 0.0 0.03 0.91 0.33 92 1015.4
20260905172242 13 0 0.0 0.0 0.03 0.91 0.33 92 1015.4
20260905171742 13 0 0.0 0.0 0.03 0.94 0.33 92 1015.3
20260905171242 13 0 0.0 0.0 0.03 0.99 0.33 92 1015.4
20260905170945 13 0 0.0 0.0 0.03 0.99 0.33 92 1015.5
20260905170742 13 0 0.0 0.0 0.03 0.99 0.33 92 1015.5
20260905170242 13 0 0.0 0.0 0.03 0.99 0.33 91 1015.4
20260905170154 13 0 0.0 0.0 0.03 0.99 0.33 92 1015.4
20260905165418 13 0 0.0 0.0 0.03 0.99 0.33 92 1015.4
20260905164918 13 0 0.0 0.0 0.00 0.97 0.30 92 1015.4
20260905164509 13 0 0.0 0.0 0.00 0.97 0.30 92 1015.3
20260905164418 13 0 0.0 0.0 0.00 0.97 0.30 92 1015.3
20260905164032 13 0 0.0 0.0 0.03 0.97 0.30 92 1015.3
20260905163918 13 0 0.0 0.0 0.03 0.97 0.30 92 1015.3
20260905163526 13 0 0.0 0.0 0.03 0.97 0.30 91 1015.3
20260905163418 13 0 0.0 0.0 0.03 0.97 0.30 91 1015.3
20260905163151 13 0 0.0 0.0 0.03 0.97 0.30 91 1015.4
20260905163111 13 0 0.0 0.0 0.03 0.97 0.30 91 1015.4
20260905162918 13 0 0.0 0.0 0.03 0.97 0.30 91 1015.4
20260905162506 14 0 0.0 0.0 0.03 0.97 0.30 90 1015.7
20260905162418 14 0 0.0 0.0 0.03 0.97 0.30 90 1015.7
20260905162037 14 0 0.0 0.0 0.03 0.97 0.30 90 1015.7
20260905161918 14 0 0.0 0.0 0.03 0.97 0.30 90 1015.7
20260905161514 15 0 0.0 0.0 0.03 0.97 0.30 87 1015.7
20260905161418 15 0 0.0 0.0 0.03 0.97 0.30 87 1015.7
20260905161006 16 0 0.0 0.0 0.03 0.97 0.30 85 1015.8
20260905160917 16 0 0.0 0.0 0.03 0.97 0.30 85 1015.8
20260905160418 16 0 0.0 0.0 0.03 0.97 0.30 82 1015.0
20260905160026 16 0 0.0 0.0 0.03 0.97 0.30 81 1014.4
20260905155917 16 0 0.0 0.0 0.03 0.97 0.30 81 1014.4
20260905155418 16 0 0.0 0.0 0.03 0.97 0.30 82 1014.2
20260905155033 16 0 0.0 0.0 0.03 0.97 0.30 82 1014.2
20260905154917 16 0 0.0 0.0 0.03 0.97 0.30 82 1014.2
20260905153917 16 0 0.0 0.0 0.03 0.94 0.28 84 1014.3
20260905153616 16 0 0.0 0.0 0.03 0.94 0.28 85 1014.4
20260905153417 16 0 0.0 0.0 0.03 0.94 0.28 85 1014.4
20260905153038 16 0 0.0 0.0 0.03 0.94 0.28 85 1014.5
20260905152917 16 0 0.0 0.0 0.03 0.94 0.28 85 1014.5
20260905152532 15 0 0.0 0.0 0.03 0.94 0.28 85 1014.4
20260905152417 15 0 0.0 0.0 0.03 0.94 0.28 85 1014.4
20260905152049 15 0 0.0 0.0 0.03 0.94 0.28 85 1014.5
20260905151917 15 0 0.0 0.0 0.03 0.94 0.28 85 1014.5
20260905151044 15 0 0.0 0.0 0.03 0.94 0.28 86 1014.5
20260905150702 15 0 0.0 0.0 0.03 0.94 0.28 85 1014.6
20260905150544 15 0 0.0 0.0 0.03 0.94 0.28 85 1014.6
20260905150203 15 0 0.0 0.0 0.03 0.94 0.28 83 1014.6
20260905150044 15 0 0.0 0.0 0.03 0.94 0.28 83 1014.6
20260905145758 16 0 0.0 0.0 0.03 0.94 0.28 81 1014.9
20260905145544 16 0 0.0 0.0 0.03 0.94 0.28 81 1014.9
20260905145206 16 0 0.0 0.0 0.03 0.94 0.28 76 1015.0
20260905145044 16 0 0.0 0.0 0.03 0.94 0.28 76 1015.0
20260905144726 17 0 0.0 0.0 0.00 0.91 0.25 72 1014.8
20260905144544 17 0 0.0 0.0 0.00 0.91 0.25 72 1014.8
20260905144224 18 0 0.0 0.0 0.03 0.91 0.25 71 1014.5
20260905144044 18 0 0.0 0.0 0.03 0.91 0.25 71 1014.5
20260905143731 18 0 0.0 0.0 0.03 0.91 0.25 70 1014.4
20260905143544 18 0 0.0 0.0 0.03 0.91 0.25 70 1014.4
20260905142751 18 0 0.0 0.0 0.03 0.91 0.25 70 1014.2
20260905142554 18 0 0.0 0.0 0.03 0.91 0.25 70 1014.2
20260905142239 18 0 0.0 0.0 0.03 0.91 0.25 71 1014.2
20260905142054 18 0 0.0 0.0 0.03 0.91 0.25 71 1014.2
20260905141840 18 0 0.0 0.0 0.03 0.91 0.25 72 1014.2
20260905141554 18 0 0.0 0.0 0.03 0.91 0.25 72 1014.2
20260905141210 18 0 0.0 0.0 0.03 0.91 0.25 71 1014.3
20260905141054 18 0 0.0 0.0 0.03 0.91 0.25 71 1014.3
20260905140754 18 0 0.0 0.0 0.03 0.91 0.25 71 1014.3
20260905140555 18 0 0.0 0.0 0.03 0.91 0.25 71 1014.3
20260905140055 18 0 0.0 0.0 0.05 0.91 0.25 71 1014.2
20260905135658 18 0 0.0 0.0 0.05 0.91 0.25 71 1014.1
20260905135554 18 0 0.0 0.0 0.05 0.91 0.25 71 1014.1
20260905135208 18 0 0.0 0.0 0.05 0.91 0.25 71 1014.1
20260905135054 18 0 0.0 0.0 0.05 0.91 0.25 71 1014.1
20260905134702 18 0 0.0 0.0 0.05 0.91 0.25 72 1014.1
20260905134554 18 0 0.0 0.0 0.05 0.91 0.25 72 1014.1
20260905134129 18 0 0.0 0.0 0.03 0.89 0.23 71 1014.1
20260905134054 18 0 0.0 0.0 0.03 0.89 0.23 71 1014.1
20260905133652 18 0 0.0 0.0 0.03 0.89 0.23 71 1014.1
20260905133555 18 0 0.0 0.0 0.03 0.89 0.23 71 1014.1
20260905133310 18 0 0.0 0.0 0.03 0.89 0.23 71 1014.0
20260905133054 18 0 0.0 0.0 0.03 0.89 0.23 71 1014.0
20260905132554 18 0 0.0 0.0 0.03 0.89 0.23 71 1014.0
20260905132245 18 0 0.0 0.0 0.03 0.89 0.23 70 1014.0
20260905132054 18 0 0.0 0.0 0.03 0.89 0.23 70 1014.0
20260905131554 18 0 0.0 0.0 0.05 0.89 0.23 70 1014.1
20260905131150 18 0 0.0 0.0 0.05 0.89 0.23 71 1014.0
20260905131054 18 0 0.0 0.0 0.05 0.89 0.23 71 1014.0
20260905130706 18 0 0.0 0.0 0.05 0.89 0.23 71 1014.0
20260905130554 18 0 0.0 0.0 0.05 0.89 0.23 71 1014.0
20260905130235 18 0 0.0 0.0 0.03 0.86 0.20 70 1014.0
20260905130054 18 0 0.0 0.0 0.03 0.86 0.20 70 1014.0
20260905125743 18 0 0.0 0.0 0.03 0.86 0.20 74 1013.8
20260905125554 18 0 0.0 0.0 0.03 0.86 0.20 74 1013.8
20260905125054 18 0 0.0 0.0 0.03 0.86 0.20 77 1013.8
20260905124710 18 0 0.0 0.0 0.03 0.86 0.20 81 1013.9
20260905124554 18 0 0.0 0.0 0.03 0.86 0.20 81 1013.9
20260905123753 17 0 0.0 0.0 0.03 0.86 0.20 84 1013.8
20260905123642 17 0 0.0 0.0 0.03 0.86 0.20 84 1013.8
20260905123230 17 0 0.0 0.0 0.05 0.86 0.20 87 1013.9
20260905123142 17 0 0.0 0.0 0.05 0.86 0.20 87 1013.9
20260905122740 17 0 0.0 0.0 0.05 0.86 0.20 88 1013.9
20260905122642 17 0 0.0 0.0 0.05 0.86 0.20 88 1013.9
20260905122142 16 0 0.0 0.0 0.05 0.86 0.20 90 1013.9
20260905121754 16 0 0.0 0.0 0.03 0.84 0.18 91 1014.0
20260905121642 16 0 0.0 0.0 0.03 0.84 0.18 91 1014.0
20260905121318 16 0 0.0 0.0 0.03 0.84 0.18 92 1014.1
20260905121142 16 0 0.0 0.0 0.03 0.84 0.18 92 1014.1
20260905120909 15 0 0.0 0.0 0.03 0.84 0.18 92 1014.1
20260905120642 15 0 0.0 0.0 0.03 0.84 0.18 92 1014.1
20260905120228 15 0 0.0 0.0 0.03 0.84 0.18 93 1014.1
20260905120142 15 0 0.0 0.0 0.03 0.84 0.18 93 1014.1
20260905115751 15 0 0.0 0.0 0.03 0.84 0.18 92 1014.1
20260905115642 15 0 0.0 0.0 0.03 0.84 0.18 92 1014.1
20260905114820 14 0 0.0 0.0 0.03 0.84 0.18 91 1014.2
20260905114651 14 0 0.0 0.0 0.03 0.84 0.18 91 1014.2
20260905113844 14 0 0.0 0.0 0.03 0.84 0.18 90 1014.4
20260905113652 14 0 0.0 0.0 0.03 0.84 0.18 90 1014.4
20260905113249 14 0 0.0 0.0 0.00 0.81 0.15 90 1014.5
20260905113152 14 0 0.0 0.0 0.00 0.81 0.15 90 1014.5
20260905112801 14 0 0.0 0.0 0.00 0.81 0.15 89 1014.5
20260905112652 14 0 0.0 0.0 0.00 0.81 0.15 89 1014.5
20260905112320 14 0 0.0 0.0 0.00 0.81 0.15 87 1014.5
20260905112152 14 0 0.0 0.0 0.00 0.81 0.15 87 1014.5
20260905111812 14 0 0.0 0.0 0.00 0.81 0.15 84 1014.8
20260905111651 14 0 0.0 0.0 0.00 0.81 0.15 84 1014.8
20260905111151 16 0 0.0 0.0 0.00 0.81 0.15 78 1014.8
20260905110803 18 0 0.0 0.0 0.00 0.81 0.15 70 1014.6
20260905110627 18 0 0.0 0.0 0.00 0.81 0.15 70 1014.6
20260905110304 18 0 0.0 0.0 0.00 0.81 0.15 69 1014.1
20260905110127 18 0 0.0 0.0 0.00 0.81 0.15 69 1014.1
20260905105627 18 0 0.0 0.0 0.00 0.81 0.15 69 1014.1
20260905105227 18 0 0.0 0.0 0.00 0.81 0.15 68 1014.0
20260905105127 18 0 0.0 0.0 0.00 0.81 0.15 68 1014.0
20260905104627 18 0 0.0 0.0 0.00 0.81 0.15 68 1013.9
20260905104237 18 0 0.0 0.0 0.00 0.81 0.15 68 1014.1
20260905104127 18 0 0.0 0.0 0.00 0.81 0.15 68 1014.1
20260905103913 18 0 0.0 0.0 0.00 0.81 0.15 68 1014.1
20260905103627 18 0 0.0 0.0 0.00 0.81 0.15 68 1014.1
20260905103301 18 0 0.0 0.0 0.00 0.81 0.15 68 1014.1
20260905103127 18 0 0.0 0.0 0.00 0.81 0.15 68 1014.1
20260905102748 18 0 0.0 0.0 0.00 0.81 0.15 68 1014.0
20260905102627 18 0 0.0 0.0 0.00 0.81 0.15 68 1014.0
20260905102258 18 0 0.0 0.0 0.00 0.81 0.15 69 1013.9
20260905102127 18 0 0.0 0.0 0.00 0.81 0.15 69 1013.9
20260905101505 18 0 0.0 0.0 0.00 0.81 0.15 68 1013.8
20260905101345 18 0 0.0 0.0 0.00 0.81 0.15 68 1013.8
20260905100931 18 0 0.0 0.0 0.00 0.81 0.15 68 1013.8
20260905100845 18 0 0.0 0.0 0.00 0.81 0.15 68 1013.8
20260905100605 18 0 0.0 0.0 0.00 0.81 0.15 68 1013.8
20260905100345 18 0 0.0 0.0 0.00 0.81 0.15 68 1013.8
20260905100031 18 0 0.0 0.0 0.00 0.81 0.15 68 1013.8
20260905095845 18 0 0.0 0.0 0.00 0.81 0.15 68 1013.8
20260905095509 18 0 0.0 0.0 0.00 0.81 0.15 68 1013.9
20260905095346 18 0 0.0 0.0 0.00 0.81 0.15 68 1013.9
20260905095010 18 0 0.0 0.0 0.00 0.81 0.15 69 1013.8
20260905094845 18 0 0.0 0.0 0.00 0.81 0.15 69 1013.8
20260905094514 18 0 0.0 0.0 0.00 0.81 0.15 68 1013.8
20260905094345 18 0 0.0 0.0 0.00 0.81 0.15 68 1013.8
20260905094032 18 0 0.0 0.0 0.00 0.81 0.15 68 1013.8
20260905093846 18 0 0.0 0.0 0.00 0.81 0.15 68 1013.8
20260905093448 18 0 0.0 0.0 0.00 0.81 0.15 68 1013.8
20260905093345 18 0 0.0 0.0 0.00 0.81 0.15 68 1013.8
20260905092957 17 0 0.0 0.0 0.00 0.81 0.15 70 1013.8
20260905092845 17 0 0.0 0.0 0.00 0.81 0.15 70 1013.8
20260905092614 17 0 0.0 0.0 0.00 0.81 0.15 70 1013.8
20260905092345 17 0 0.0 0.0 0.00 0.81 0.15 70 1013.8
20260905092005 17 0 0.0 0.0 0.00 0.81 0.15 69 1013.8
20260905091845 17 0 0.0 0.0 0.00 0.81 0.15 69 1013.8
20260905091509 17 0 0.0 0.0 0.00 0.81 0.15 71 1013.8
20260905091345 17 0 0.0 0.0 0.00 0.81 0.15 71 1013.8
20260905090938 17 0 0.0 0.0 0.00 0.81 0.15 70 1013.8
20260905090845 17 0 0.0 0.0 0.00 0.81 0.15 70 1013.8
20260905090511 17 0 0.0 0.0 0.00 0.81 0.15 71 1013.8
20260905090345 17 0 0.0 0.0 0.00 0.81 0.15 71 1013.8
20260905085845 17 0 0.0 0.0 0.00 0.81 0.15 71 1013.7
20260905085346 17 0 0.0 0.0 0.00 0.81 0.15 71 1013.6
20260905084959 17 0 0.0 0.0 0.00 0.81 0.15 74 1013.7
20260905084845 17 0 0.0 0.0 0.00 0.81 0.15 74 1013.7
20260905084513 17 0 0.0 0.0 0.00 0.81 0.15 73 1013.6
20260905084345 17 0 0.0 0.0 0.00 0.81 0.15 73 1013.6
20260905084004 17 0 0.0 0.0 0.00 0.81 0.15 74 1013.5
20260905083845 17 0 0.0 0.0 0.00 0.81 0.15 74 1013.5
20260905083458 17 0 0.0 0.0 0.00 0.81 0.15 73 1013.4
20260905083345 17 0 0.0 0.0 0.00 0.81 0.15 73 1013.4
20260905082336 17 0 0.0 0.0 0.00 0.81 0.15 75 1013.3
20260905082154 17 0 0.0 0.0 0.00 0.81 0.15 75 1013.3
20260905081855 17 0 0.0 0.0 0.00 0.81 0.15 76 1013.4
20260905081654 17 0 0.0 0.0 0.00 0.81 0.15 76 1013.4
20260905081439 16 0 0.0 0.0 0.03 0.81 0.15 77 1013.3
20260905081154 16 0 0.0 0.0 0.03 0.81 0.15 77 1013.3
20260905080842 16 0 0.0 0.0 0.03 0.81 0.15 77 1013.3
20260905080654 16 0 0.0 0.0 0.03 0.81 0.15 77 1013.3
20260905080249 16 0 0.0 0.0 0.03 0.81 0.15 76 1013.2
20260905080155 16 0 0.0 0.0 0.03 0.81 0.15 76 1013.2
20260905075813 16 0 0.0 0.0 0.03 0.81 0.15 77 1013.1
20260905075654 16 0 0.0 0.0 0.03 0.81 0.15 77 1013.1
20260905075431 16 0 0.0 0.0 0.03 0.81 0.15 77 1013.1
20260905075154 16 0 0.0 0.0 0.03 0.81 0.15 77 1013.1
20260905074917 16 0 0.0 0.0 0.03 0.81 0.15 79 1013.0
20260905074654 16 0 0.0 0.0 0.03 0.81 0.15 79 1013.0
20260905074014 16 0 0.0 0.0 0.03 0.81 0.15 80 1012.9
20260905073817 16 0 0.0 0.0 0.03 0.81 0.15 80 1012.9
20260905073509 16 0 0.0 0.0 0.05 0.81 0.15 81 1013.0
20260905073318 16 0 0.0 0.0 0.05 0.81 0.15 81 1013.0
20260905072938 16 0 0.0 0.0 0.05 0.81 0.15 82 1012.9
20260905072817 16 0 0.0 0.0 0.05 0.81 0.15 82 1012.9
20260905072447 16 0 0.0 0.0 0.05 0.81 0.15 83 1012.9
20260905072317 16 0 0.0 0.0 0.05 0.81 0.15 83 1012.9
20260905071914 16 0 0.0 0.0 0.05 0.81 0.15 84 1012.9
20260905071817 16 0 0.0 0.0 0.05 0.81 0.15 84 1012.9
20260905071440 15 0 0.0 0.0 0.03 0.79 0.13 85 1012.8
20260905071317 15 0 0.0 0.0 0.03 0.79 0.13 85 1012.8
20260905070920 15 0 0.0 0.0 0.03 0.79 0.13 88 1012.7
20260905070817 15 0 0.0 0.0 0.03 0.79 0.13 88 1012.7
20260905070455 15 0 0.0 0.0 0.03 0.79 0.13 88 1012.6
20260905070318 15 0 0.0 0.0 0.03 0.79 0.13 88 1012.6
20260905065433 15 0 0.0 0.0 0.03 0.79 0.13 90 1012.6
20260905065317 15 0 0.0 0.0 0.03 0.79 0.13 90 1012.6
20260905065031 15 0 0.0 0.0 0.03 0.79 0.13 90 1012.6
20260905064817 15 0 0.0 0.0 0.03 0.79 0.13 90 1012.6
20260905064206 15 0 0.0 0.0 0.03 0.79 0.13 90 1012.6
20260905064057 15 0 0.0 0.0 0.03 0.79 0.13 90 1012.6
20260905063328 15 0 0.0 0.0 0.03 0.79 0.13 90 1012.5
20260905063055 15 0 0.0 0.0 0.00 0.76 0.10 91 1012.5
20260905062828 15 0 0.0 0.0 0.00 0.76 0.10 91 1012.5
20260905062428 15 0 0.0 0.0 0.00 0.76 0.10 90 1012.3
20260905062328 15 0 0.0 0.0 0.00 0.76 0.10 90 1012.3
20260905061828 15 0 0.0 0.0 0.00 0.76 0.10 90 1012.3
20260905061511 15 0 0.0 0.0 0.00 0.76 0.10 88 1012.3
20260905061328 15 0 0.0 0.0 0.00 0.76 0.10 88 1012.3
20260905060957 15 0 0.0 0.0 0.00 0.76 0.10 87 1012.3
20260905060828 15 0 0.0 0.0 0.00 0.76 0.10 87 1012.3
20260905060445 15 0 0.0 0.0 0.00 0.76 0.10 87 1012.2
20260905060328 15 0 0.0 0.0 0.00 0.76 0.10 87 1012.2
20260905055940 15 0 0.0 0.0 0.00 0.76 0.10 87 1012.3
20260905055828 15 0 0.0 0.0 0.00 0.76 0.10 87 1012.3
20260905055443 15 0 0.0 0.0 0.00 0.76 0.10 87 1012.1
20260905055328 15 0 0.0 0.0 0.00 0.76 0.10 87 1012.1
20260905055037 15 0 0.0 0.0 0.00 0.76 0.10 87 1012.1
20260905054828 15 0 0.0 0.0 0.00 0.76 0.10 87 1012.1
20260905054100 15 0 0.0 0.0 0.00 0.76 0.10 88 1012.0
20260905053600 15 0 0.0 0.0 0.00 0.76 0.10 88 1011.8
20260905053222 15 0 0.0 0.0 0.00 0.76 0.10 88 1011.8
20260905053100 15 0 0.0 0.0 0.00 0.76 0.10 88 1011.8
20260905052941 15 0 0.0 0.0 0.00 0.76 0.10 88 1011.7
20260905052600 15 0 0.0 0.0 0.00 0.76 0.10 88 1011.7
20260905052154 15 0 0.0 0.0 0.00 0.76 0.10 88 1011.7
20260905052100 15 0 0.0 0.0 0.00 0.76 0.10 88 1011.7
20260905051600 15 0 0.0 0.0 0.00 0.76 0.10 88 1011.6
20260905051223 15 0 0.0 0.0 0.00 0.76 0.10 88 1011.6
20260905051100 15 0 0.0 0.0 0.00 0.76 0.10 88 1011.6
20260905050710 15 0 0.0 0.0 0.00 0.76 0.10 88 1011.6
20260905050600 15 0 0.0 0.0 0.00 0.76 0.10 88 1011.6
20260905050206 15 0 0.0 0.0 0.00 0.76 0.10 88 1011.5
20260905050100 15 0 0.0 0.0 0.00 0.76 0.10 88 1011.5
20260905045711 15 0 0.0 0.0 0.00 0.76 0.10 88 1011.5
20260905045559 15 0 0.0 0.0 0.00 0.76 0.10 88 1011.5
20260905045211 15 0 0.0 0.0 0.00 0.76 0.10 88 1011.4
20260905045100 15 0 0.0 0.0 0.00 0.76 0.10 88 1011.4
20260905044600 15 0 0.0 0.0 0.00 0.76 0.10 88 1011.4
20260905044151 15 0 0.0 0.0 0.00 0.76 0.10 88 1011.4
20260905044100 15 0 0.0 0.0 0.00 0.76 0.10 88 1011.4
20260905043748 15 0 0.0 0.0 0.00 0.76 0.10 89 1011.2
20260905043600 15 0 0.0 0.0 0.00 0.76 0.10 89 1011.2
20260905043219 15 0 0.0 0.0 0.00 0.76 0.10 89 1011.1
20260905043059 15 0 0.0 0.0 0.00 0.76 0.10 89 1011.1
20260905042744 15 0 0.0 0.0 0.00 0.76 0.10 89 1011.1
20260905042559 15 0 0.0 0.0 0.00 0.76 0.10 89 1011.1
20260905042232 15 0 0.0 0.0 0.00 0.76 0.10 89 1011.0
20260905042059 15 0 0.0 0.0 0.00 0.76 0.10 89 1011.0
20260905041810 15 0 0.0 0.0 0.00 0.76 0.10 89 1011.0
20260905041600 15 0 0.0 0.0 0.00 0.76 0.10 89 1011.0
20260905040939 15 0 0.0 0.0 0.00 0.76 0.10 89 1010.9
20260905040848 15 0 0.0 0.0 0.00 0.76 0.10 89 1010.9
20260905040559 15 0 0.0 0.0 0.00 0.76 0.10 89 1010.9
20260905040348 15 0 0.0 0.0 0.00 0.76 0.10 89 1010.9
20260905040037 15 0 0.0 0.0 0.00 0.76 0.10 89 1010.8
20260905035848 15 0 0.0 0.0 0.00 0.76 0.10 89 1010.8
20260905035500 15 0 0.0 0.0 0.00 0.76 0.10 89 1010.7
20260905035348 15 0 0.0 0.0 0.00 0.76 0.10 89 1010.7
20260905035108 15 0 0.0 0.0 0.00 0.76 0.10 89 1010.7
20260905034848 15 0 0.0 0.0 0.00 0.76 0.10 89 1010.7
20260905034348 15 0 0.0 0.0 0.00 0.76 0.10 89 1010.6
20260905034023 15 0 0.0 0.0 0.00 0.76 0.10 89 1010.6
20260905033848 15 0 0.0 0.0 0.00 0.76 0.10 89 1010.6
20260905033526 15 0 0.0 0.0 0.00 0.76 0.10 89 1010.5
20260905033348 15 0 0.0 0.0 0.00 0.76 0.10 89 1010.5
20260905032901 15 0 0.0 0.0 0.00 0.76 0.10 89 1010.5
20260905032616 15 0 0.0 0.0 0.00 0.76 0.10 89 1010.5
20260905032334 15 0 0.0 0.0 0.00 0.76 0.10 89 1010.5
20260905032116 15 0 0.0 0.0 0.00 0.76 0.10 89 1010.5
20260905031917 15 0 0.0 0.0 0.00 0.76 0.10 88 1010.4
20260905031616 15 0 0.0 0.0 0.00 0.76 0.10 88 1010.4
20260905031358 15 0 0.0 0.0 0.00 0.76 0.10 88 1010.3
20260905031117 15 0 0.0 0.0 0.00 0.76 0.10 88 1010.3
20260905030911 15 0 0.0 0.0 0.00 0.76 0.10 89 1010.2
20260905030616 15 0 0.0 0.0 0.00 0.76 0.10 89 1010.2
20260905030250 15 0 0.0 0.0 0.00 0.76 0.10 89 1010.2
20260905030116 15 0 0.0 0.0 0.00 0.76 0.10 89 1010.2
20260905025533 15 0 0.0 0.0 0.00 0.76 0.10 89 1010.0
20260905025349 15 0 0.0 0.0 0.00 0.76 0.10 89 1010.0
20260905025058 15 0 0.0 0.0 0.00 0.76 0.10 89 1009.9
20260905024849 15 0 0.0 0.0 0.00 0.76 0.10 89 1009.9
20260905024708 15 0 0.0 0.0 0.00 0.76 0.10 89 1009.9
20260905024349 15 0 0.0 0.0 0.00 0.76 0.10 89 1009.9
20260905024023 15 0 0.0 0.0 0.00 0.76 0.10 88 1009.9
20260905023849 15 0 0.0 0.0 0.00 0.76 0.10 88 1009.9
20260905023457 16 0 0.0 0.0 0.00 0.76 0.10 88 1009.8
20260905023349 16 0 0.0 0.0 0.00 0.76 0.10 88 1009.8
20260905023108 16 0 0.0 0.0 0.00 0.76 0.10 88 1009.9
20260905022849 16 0 0.0 0.0 0.00 0.76 0.10 88 1009.9
20260905022349 16 0 0.0 0.0 0.00 0.76 0.10 88 1009.9
20260905022010 16 0 0.0 0.0 0.00 0.76 0.10 87 1009.9
20260905021849 16 0 0.0 0.0 0.00 0.76 0.10 87 1009.9
20260905021534 16 0 0.0 0.0 0.00 0.76 0.10 86 1009.9
20260905021349 16 0 0.0 0.0 0.00 0.76 0.10 86 1009.9
20260905020956 16 0 0.0 0.0 0.00 0.76 0.10 86 1009.9
20260905020849 16 0 0.0 0.0 0.00 0.76 0.10 86 1009.9
20260905020619 16 0 0.0 0.0 0.00 0.76 0.10 86 1009.9
20260905020349 16 0 0.0 0.0 0.00 0.76 0.10 86 1009.9
20260905020012 16 0 0.0 0.0 0.00 0.76 0.10 85 1009.7
20260905015643 16 0 0.0 0.0 0.00 0.76 0.10 85 1009.7
20260905015351 16 0 0.0 0.0 0.00 0.76 0.10 85 1009.7
20260905015143 16 0 0.0 0.0 0.00 0.76 0.10 85 1009.7
20260905015032 16 0 0.0 0.0 0.00 0.76 0.10 86 1009.6
20260905014643 16 0 0.0 0.0 0.00 0.76 0.10 86 1009.6
20260905014216 16 0 0.0 0.0 0.00 0.76 0.10 87 1009.5
20260905014143 16 0 0.0 0.0 0.00 0.76 0.10 87 1009.5
20260905013814 16 0 0.0 0.0 0.00 0.76 0.10 87 1009.5
20260905013643 16 0 0.0 0.0 0.00 0.76 0.10 87 1009.5
20260905013335 16 0 0.0 0.0 0.03 0.76 0.10 87 1009.4
20260905013143 16 0 0.0 0.0 0.03 0.76 0.10 87 1009.4
20260905013031 16 0 0.0 0.0 0.03 0.76 0.10 88 1009.4
20260905012643 16 0 0.0 0.0 0.03 0.76 0.10 88 1009.4
20260905012320 16 0 0.0 0.0 0.03 0.76 0.10 88 1009.4
20260905012143 16 0 0.0 0.0 0.03 0.76 0.10 88 1009.4
20260905011511 16 0 0.0 0.0 0.03 0.76 0.10 88 1009.2
20260905011412 16 0 0.0 0.0 0.03 0.76 0.10 88 1009.2
20260905011009 16 0 0.0 0.0 0.03 0.76 0.10 88 1009.3
20260905010912 16 0 0.0 0.0 0.03 0.76 0.10 88 1009.3
20260905010621 16 0 0.0 0.0 0.03 0.76 0.10 88 1009.3
20260905010412 16 0 0.0 0.0 0.03 0.76 0.10 88 1009.3
20260905010117 16 0 0.0 0.0 0.03 0.76 0.10 88 1009.4
20260905005912 16 0 0.0 0.0 0.03 0.76 0.10 88 1009.4
20260905005415 16 0 0.0 0.0 0.05 0.76 0.10 88 1009.2
20260905005157 16 0 0.0 0.0 0.05 0.76 0.10 88 1009.2
20260905005006 16 0 0.0 0.0 0.05 0.76 0.10 88 1009.2
20260905004657 16 0 0.0 0.0 0.05 0.76 0.10 88 1009.2
20260905004341 16 0 0.0 0.0 0.05 0.76 0.10 88 1009.1
20260905004157 16 0 0.0 0.0 0.05 0.76 0.10 88 1009.1
20260905003901 16 0 0.0 0.0 0.05 0.76 0.10 88 1009.0
20260905003657 16 0 0.0 0.0 0.05 0.76 0.10 88 1009.0
20260905003328 16 0 0.0 0.0 0.05 0.76 0.10 88 1008.8
20260905003157 16 0 0.0 0.0 0.05 0.76 0.10 88 1008.8
20260905002856 16 0 0.0 0.0 0.03 0.74 0.08 88 1008.8
20260905002657 16 0 0.0 0.0 0.03 0.74 0.08 88 1008.8
20260905002157 16 0 0.0 0.0 0.03 0.74 0.08 89 1008.5
20260905001913 16 0 0.0 0.0 0.03 0.74 0.08 89 1008.3
20260905001657 16 0 0.0 0.0 0.03 0.74 0.08 89 1008.3
20260905001235 16 0 0.0 0.0 0.03 0.74 0.08 90 1008.4
20260905001156 16 0 0.0 0.0 0.03 0.74 0.08 90 1008.4
20260905000817 16 0 0.0 0.0 0.05 0.74 0.08 90 1008.4
20260905000658 16 0 0.0 0.0 0.05 0.74 0.08 90 1008.4
20260905000359 16 0 0.0 0.0 0.05 0.74 0.08 90 1008.5
20260905000156 16 0 0.0 0.0 0.05 0.74 0.08 90 1008.5
20260904235844 16 0 0.0 0.0 0.03 0.71 0.05 90 1008.5
20260904235656 16 0 0.0 0.0 0.03 0.71 0.05 90 1008.5
20260904235355 16 0 0.0 0.0 0.03 0.71 0.05 91 1008.4
20260904235157 16 0 0.0 0.0 0.03 0.71 0.05 91 1008.4
20260904234916 16 0 0.0 0.0 0.03 0.71 0.05 91 1008.5
20260904234656 16 0 0.0 0.0 0.03 0.71 0.05 91 1008.5
20260904234259 16 0 0.0 0.0 0.03 0.71 0.05 91 1008.5
20260904234156 16 0 0.0 0.0 0.03 0.71 0.05 91 1008.5
20260904233828 16 0 0.0 0.0 0.05 0.71 0.05 91 1008.4
20260904233656 16 0 0.0 0.0 0.05 0.71 0.05 91 1008.4
20260904233409 16 0 0.0 0.0 0.05 0.71 0.05 91 1008.3
20260904233157 16 0 0.0 0.0 0.05 0.71 0.05 91 1008.3
20260904233107 16 0 0.0 0.0 0.05 0.71 0.05 91 1008.2
20260904232656 16 0 0.0 0.0 0.05 0.71 0.05 91 1008.2
20260904232325 16 0 0.0 0.0 0.05 0.71 0.05 91 1008.2
20260904232156 16 0 0.0 0.0 0.05 0.71 0.05 91 1008.2
20260904231851 16 0 0.0 0.0 0.05 0.71 0.05 91 1008.1
20260904231656 16 0 0.0 0.0 0.05 0.71 0.05 91 1008.1
20260904231157 16 0 0.0 0.0 0.05 0.71 0.05 92 1007.9
20260904230919 16 0 0.0 0.0 0.03 0.69 0.03 92 1007.8
20260904230658 16 0 0.0 0.0 0.03 0.69 0.03 92 1007.8
20260904225723 16 0 0.0 0.0 0.05 0.69 0.03 91 1007.6
20260904225557 16 0 0.0 0.0 0.05 0.69 0.03 91 1007.6
20260904225245 16 0 0.0 0.0 0.05 0.69 0.03 91 1007.6
20260904225057 16 0 0.0 0.0 0.05 0.69 0.03 91 1007.6
20260904224557 16 0 0.0 0.0 0.05 0.69 0.03 91 1007.7
20260904224057 16 0 0.0 0.0 0.05 0.69 0.03 91 1007.6
20260904223557 16 0 0.0 0.0 0.03 0.66 0.00 91 1007.7